Year,Month,Day,Hour,Minute,Value (Times are PST for temperature in C)
2011,04,11,00,00,6.10
2011,04,11,00,01,6.00
2011,04,11,00,02,6.00
2011,04,11,00,03,6.00
2011,04,11,00,04,6.00
2011,04,11,00,05,6.00
2011,04,11,00,06,6.00
2011,04,11,00,07,6.00
2011,04,11,00,08,5.90
2011,04,11,00,09,5.90
2011,04,11,00,10,5.90
2011,04,11,00,11,6.00
2011,04,11,00,12,6.00
2011,04,11,00,13,6.10
2011,04,11,00,14,6.10
2011,04,11,00,15,6.10
2011,04,11,00,16,6.20
2011,04,11,00,17,6.20
2011,04,11,00,18,6.20
2011,04,11,00,19,6.20
2011,04,11,00,20,6.20
2011,04,11,00,21,6.20
2011,04,11,00,22,6.20
2011,04,11,00,23,6.20
2011,04,11,00,24,6.30
2011,04,11,00,25,6.30
2011,04,11,00,26,6.30
2011,04,11,00,27,6.30
2011,04,11,00,28,6.30
2011,04,11,00,29,6.30
2011,04,11,00,30,6.30
2011,04,11,00,31,6.30
2011,04,11,00,32,6.30
2011,04,11,00,33,6.30
2011,04,11,00,34,6.30
2011,04,11,00,35,6.20
2011,04,11,00,36,6.20
2011,04,11,00,37,6.10
2011,04,11,00,38,6.10
2011,04,11,00,39,6.10
2011,04,11,00,40,6.10
2011,04,11,00,41,6.10
2011,04,11,00,42,6.10
2011,04,11,00,43,6.10
2011,04,11,00,44,6.10
2011,04,11,00,45,6.10
2011,04,11,00,46,6.10
2011,04,11,00,47,6.10
2011,04,11,00,48,6.10
2011,04,11,00,49,6.10
2011,04,11,00,50,6.00
2011,04,11,00,51,6.00
2011,04,11,00,52,6.00
2011,04,11,00,53,5.90
2011,04,11,00,54,5.90
2011,04,11,00,55,5.90
2011,04,11,00,56,5.90
2011,04,11,00,57,5.90
2011,04,11,00,58,6.00
2011,04,11,00,59,6.00
2011,04,11,01,00,6.00
2011,04,11,01,01,6.00
2011,04,11,01,02,5.90
2011,04,11,01,03,5.90
2011,04,11,01,04,5.90
2011,04,11,01,05,5.80
2011,04,11,01,06,5.80
2011,04,11,01,07,5.80
2011,04,11,01,08,5.80
2011,04,11,01,09,5.80
2011,04,11,01,10,5.80
2011,04,11,01,11,5.80
2011,04,11,01,12,5.70
2011,04,11,01,13,5.70
2011,04,11,01,14,5.70
2011,04,11,01,15,5.70
2011,04,11,01,16,5.70
2011,04,11,01,17,5.70
2011,04,11,01,18,5.70
2011,04,11,01,19,5.70
2011,04,11,01,20,5.70
2011,04,11,01,21,5.60
2011,04,11,01,22,5.60
2011,04,11,01,23,5.60
2011,04,11,01,24,5.60
2011,04,11,01,25,5.50
2011,04,11,01,26,5.50
2011,04,11,01,27,5.50
2011,04,11,01,28,5.50
2011,04,11,01,29,5.40
2011,04,11,01,30,5.40
2011,04,11,01,31,5.40
2011,04,11,01,32,5.40
2011,04,11,01,33,5.40
2011,04,11,01,34,5.40
2011,04,11,01,35,5.40
2011,04,11,01,36,5.40
2011,04,11,01,37,5.40
2011,04,11,01,38,5.40
2011,04,11,01,39,5.40
2011,04,11,01,40,5.40
2011,04,11,01,41,5.40
2011,04,11,01,42,5.40
2011,04,11,01,43,5.50
2011,04,11,01,44,5.50
2011,04,11,01,45,5.40
2011,04,11,01,46,5.40
2011,04,11,01,47,5.40
2011,04,11,01,48,5.40
2011,04,11,01,49,5.40
2011,04,11,01,50,5.50
2011,04,11,01,51,5.50
2011,04,11,01,52,5.50
2011,04,11,01,53,5.50
2011,04,11,01,54,5.50
2011,04,11,01,55,5.40
2011,04,11,01,56,5.40
2011,04,11,01,57,5.40
2011,04,11,01,58,5.40
2011,04,11,01,59,5.40
2011,04,11,02,00,5.40
2011,04,11,02,01,5.50
2011,04,11,02,02,5.50
2011,04,11,02,03,5.60
2011,04,11,02,04,5.50
2011,04,11,02,05,5.50
2011,04,11,02,06,5.50
2011,04,11,02,07,5.50
2011,04,11,02,08,5.40
2011,04,11,02,09,5.40
2011,04,11,02,10,5.40
2011,04,11,02,11,5.40
2011,04,11,02,12,5.40
2011,04,11,02,13,5.40
2011,04,11,02,14,5.40
2011,04,11,02,15,5.50
2011,04,11,02,16,5.50
2011,04,11,02,17,5.50
2011,04,11,02,18,5.50
2011,04,11,02,19,5.50
2011,04,11,02,20,5.60
2011,04,11,02,21,5.60
2011,04,11,02,22,5.60
2011,04,11,02,23,5.60
2011,04,11,02,24,5.60
2011,04,11,02,25,5.60
2011,04,11,02,26,5.60
2011,04,11,02,27,5.60
2011,04,11,02,28,5.60
2011,04,11,02,29,5.60
2011,04,11,02,30,5.50
2011,04,11,02,31,5.50
2011,04,11,02,32,5.40
2011,04,11,02,33,5.40
2011,04,11,02,34,5.40
2011,04,11,02,35,5.40
2011,04,11,02,36,5.30
2011,04,11,02,37,5.30
2011,04,11,02,38,5.30
2011,04,11,02,39,5.30
2011,04,11,02,40,5.20
2011,04,11,02,41,5.20
2011,04,11,02,42,5.20
2011,04,11,02,43,5.20
2011,04,11,02,44,5.20
2011,04,11,02,45,5.20
2011,04,11,02,46,5.20
2011,04,11,02,47,5.30
2011,04,11,02,48,5.30
2011,04,11,02,49,5.30
2011,04,11,02,50,5.30
2011,04,11,02,51,5.30
2011,04,11,02,52,5.30
2011,04,11,02,53,5.30
2011,04,11,02,54,5.40
2011,04,11,02,55,5.40
2011,04,11,02,56,5.40
2011,04,11,02,57,5.40
2011,04,11,02,58,5.40
2011,04,11,02,59,5.40
2011,04,11,03,00,5.30
2011,04,11,03,01,5.30
2011,04,11,03,02,5.30
2011,04,11,03,03,5.30
2011,04,11,03,04,5.30
2011,04,11,03,05,5.30
2011,04,11,03,06,5.30
2011,04,11,03,07,5.40
2011,04,11,03,08,5.40
2011,04,11,03,09,5.40
2011,04,11,03,10,5.40
2011,04,11,03,11,5.40
2011,04,11,03,12,5.40
2011,04,11,03,13,5.40
2011,04,11,03,14,5.40
2011,04,11,03,15,5.40
2011,04,11,03,16,5.40
2011,04,11,03,17,5.40
2011,04,11,03,18,5.40
2011,04,11,03,19,5.50
2011,04,11,03,20,5.50
2011,04,11,03,21,5.50
2011,04,11,03,22,5.40
2011,04,11,03,23,5.40
2011,04,11,03,24,5.40
2011,04,11,03,25,5.40
2011,04,11,03,26,5.40
2011,04,11,03,27,5.40
2011,04,11,03,28,5.40
2011,04,11,03,29,5.40
2011,04,11,03,30,5.30
2011,04,11,03,31,5.30
2011,04,11,03,32,5.30
2011,04,11,03,33,5.30
2011,04,11,03,34,5.30
2011,04,11,03,35,5.30
2011,04,11,03,36,5.30
2011,04,11,03,37,5.30
2011,04,11,03,38,5.20
2011,04,11,03,39,5.20
2011,04,11,03,40,5.20
2011,04,11,03,41,5.20
2011,04,11,03,42,5.20
2011,04,11,03,43,5.10
2011,04,11,03,44,5.10
2011,04,11,03,45,5.10
2011,04,11,03,46,5.10
2011,04,11,03,47,5.10
2011,04,11,03,48,5.10
2011,04,11,03,49,5.10
2011,04,11,03,50,5.10
2011,04,11,03,51,5.20
2011,04,11,03,52,5.10
2011,04,11,03,53,5.10
2011,04,11,03,54,5.10
2011,04,11,03,55,5.10
2011,04,11,03,56,5.10
2011,04,11,03,57,5.10
2011,04,11,03,58,5.10
2011,04,11,03,59,5.10
2011,04,11,04,00,5.10
2011,04,11,04,01,5.10
2011,04,11,04,02,5.10
2011,04,11,04,03,5.10
2011,04,11,04,04,5.00
2011,04,11,04,05,5.00
2011,04,11,04,06,5.00
2011,04,11,04,07,5.00
2011,04,11,04,08,5.00
2011,04,11,04,09,4.90
2011,04,11,04,10,4.90
2011,04,11,04,11,4.90
2011,04,11,04,12,4.90
2011,04,11,04,13,4.90
2011,04,11,04,14,4.90
2011,04,11,04,15,4.80
2011,04,11,04,16,4.80
2011,04,11,04,17,4.80
2011,04,11,04,18,4.80
2011,04,11,04,19,4.80
2011,04,11,04,20,4.70
2011,04,11,04,21,4.70
2011,04,11,04,22,4.70
2011,04,11,04,23,4.70
2011,04,11,04,24,4.60
2011,04,11,04,25,4.60
2011,04,11,04,26,4.60
2011,04,11,04,27,4.60
2011,04,11,04,28,4.60
2011,04,11,04,29,4.60
2011,04,11,04,30,4.60
2011,04,11,04,31,4.50
2011,04,11,04,32,4.50
2011,04,11,04,33,4.50
2011,04,11,04,34,4.50
2011,04,11,04,35,4.40
2011,04,11,04,36,4.40
2011,04,11,04,37,4.40
2011,04,11,04,38,4.30
2011,04,11,04,39,4.30
2011,04,11,04,40,4.30
2011,04,11,04,41,4.20
2011,04,11,04,42,4.20
2011,04,11,04,43,4.10
2011,04,11,04,44,4.10
2011,04,11,04,45,4.10
2011,04,11,04,46,4.10
2011,04,11,04,47,4.10
2011,04,11,04,48,4.00
2011,04,11,04,49,3.90
2011,04,11,04,50,3.90
2011,04,11,04,51,3.80
2011,04,11,04,52,3.80
2011,04,11,04,53,3.70
2011,04,11,04,54,3.70
2011,04,11,04,55,3.70
2011,04,11,04,56,3.60
2011,04,11,04,57,3.60
2011,04,11,04,58,3.60
2011,04,11,04,59,3.50
2011,04,11,05,00,3.50
2011,04,11,05,01,3.50
2011,04,11,05,02,3.40
2011,04,11,05,03,3.40
2011,04,11,05,04,3.30
2011,04,11,05,05,3.30
2011,04,11,05,06,3.30
2011,04,11,05,07,3.30
2011,04,11,05,08,3.20
2011,04,11,05,09,3.20
2011,04,11,05,10,3.20
2011,04,11,05,11,3.20
2011,04,11,05,12,3.10
2011,04,11,05,13,3.10
2011,04,11,05,14,3.00
2011,04,11,05,15,3.00
2011,04,11,05,16,2.90
2011,04,11,05,17,2.90
2011,04,11,05,18,2.90
2011,04,11,05,19,2.90
2011,04,11,05,20,2.90
2011,04,11,05,21,2.80
2011,04,11,05,22,2.80
2011,04,11,05,23,2.80
2011,04,11,05,24,2.80
2011,04,11,05,25,2.70
2011,04,11,05,26,2.70
2011,04,11,05,27,2.70
2011,04,11,05,28,2.60
2011,04,11,05,29,2.60
2011,04,11,05,30,2.60
2011,04,11,05,31,2.60
2011,04,11,05,32,2.60
2011,04,11,05,33,2.50
2011,04,11,05,34,2.50
2011,04,11,05,35,2.50
2011,04,11,05,36,2.50
2011,04,11,05,37,2.50
2011,04,11,05,38,2.50
2011,04,11,05,39,2.60
2011,04,11,05,40,2.60
2011,04,11,05,41,2.60
2011,04,11,05,42,2.60
2011,04,11,05,43,2.60
2011,04,11,05,44,2.60
2011,04,11,05,45,2.50
2011,04,11,05,46,2.50
2011,04,11,05,47,2.50
2011,04,11,05,48,2.40
2011,04,11,05,49,2.40
2011,04,11,05,50,2.40
2011,04,11,05,51,2.40
2011,04,11,05,52,2.40
2011,04,11,05,53,2.40
2011,04,11,05,54,2.40
2011,04,11,05,55,2.40
2011,04,11,05,56,2.40
2011,04,11,05,57,2.40
2011,04,11,05,58,2.40
2011,04,11,05,59,2.40
2011,04,11,06,00,2.40
2011,04,11,07,24,1.80
2011,04,11,07,25,1.80
2011,04,11,07,26,1.80
2011,04,11,07,27,1.80
2011,04,11,07,28,1.80
2011,04,11,07,29,1.80
2011,04,11,07,30,1.90
2011,04,11,07,31,1.90
2011,04,11,07,32,2.00
2011,04,11,07,33,2.10
2011,04,11,07,34,2.20
2011,04,11,07,35,2.30
2011,04,11,07,36,2.40
2011,04,11,07,37,2.50
2011,04,11,07,38,2.60
2011,04,11,07,39,2.70
2011,04,11,07,40,2.80
2011,04,11,07,41,2.90
2011,04,11,07,42,3.10
2011,04,11,07,43,3.20
2011,04,11,07,44,3.30
2011,04,11,07,45,3.30
2011,04,11,07,46,3.30
2011,04,11,07,47,3.30
2011,04,11,07,48,3.30
2011,04,11,07,49,3.20
2011,04,11,07,50,3.30
2011,04,11,07,51,3.30
2011,04,11,07,52,3.30
2011,04,11,07,53,3.30
2011,04,11,07,54,3.30
2011,04,11,07,55,3.30
2011,04,11,07,56,3.30
2011,04,11,07,57,3.30
2011,04,11,07,58,3.30
2011,04,11,07,59,3.30
2011,04,11,08,00,3.30
2011,04,11,08,01,3.40
2011,04,11,08,02,3.40
2011,04,11,08,03,3.40
2011,04,11,08,04,3.50
2011,04,11,08,05,3.50
2011,04,11,08,06,3.60
2011,04,11,08,07,3.60
2011,04,11,08,08,3.70
2011,04,11,08,09,3.70
2011,04,11,08,10,3.80
2011,04,11,08,11,4.00
2011,04,11,08,12,4.10
2011,04,11,08,13,4.20
2011,04,11,08,14,4.30
2011,04,11,08,15,4.40
2011,04,11,08,16,4.60
2011,04,11,08,17,4.70
2011,04,11,08,18,4.80
2011,04,11,08,19,4.80
2011,04,11,08,20,4.90
2011,04,11,08,21,4.90
2011,04,11,08,22,4.90
2011,04,11,08,23,4.90
2011,04,11,08,24,4.90
2011,04,11,08,25,4.90
2011,04,11,08,26,4.90
2011,04,11,08,27,4.90
2011,04,11,08,28,4.90
2011,04,11,08,29,4.90
2011,04,11,08,30,4.90
2011,04,11,08,31,5.00
2011,04,11,08,32,5.00
2011,04,11,08,33,5.10
2011,04,11,08,34,5.20
2011,04,11,08,35,5.40
2011,04,11,08,36,5.50
2011,04,11,08,37,5.60
2011,04,11,08,38,5.70
2011,04,11,08,39,5.70
2011,04,11,08,40,5.80
2011,04,11,08,41,5.70
2011,04,11,08,42,5.70
2011,04,11,08,43,5.70
2011,04,11,08,44,5.80
2011,04,11,08,45,5.80
2011,04,11,08,46,5.80
2011,04,11,08,47,5.90
2011,04,11,08,48,5.90
2011,04,11,08,49,5.90
2011,04,11,08,50,6.00
2011,04,11,08,51,6.10
2011,04,11,08,52,6.20
2011,04,11,08,53,6.40
2011,04,11,08,54,6.50
2011,04,11,08,55,6.60
2011,04,11,08,56,6.70
2011,04,11,08,57,6.70
2011,04,11,08,58,6.80
2011,04,11,08,59,6.90
2011,04,11,09,00,7.00
2011,04,11,09,01,7.10
2011,04,11,09,02,7.20
2011,04,11,09,03,7.20
2011,04,11,09,04,7.30
2011,04,11,09,05,7.40
2011,04,11,09,06,7.40
2011,04,11,09,07,7.50
2011,04,11,09,08,7.60
2011,04,11,09,09,7.70
2011,04,11,09,10,7.70
2011,04,11,09,11,7.70
2011,04,11,09,12,7.60
2011,04,11,09,13,7.60
2011,04,11,09,14,7.60
2011,04,11,09,15,7.60
2011,04,11,09,16,7.70
2011,04,11,09,17,7.60
2011,04,11,09,18,7.50
2011,04,11,09,19,7.50
2011,04,11,09,20,7.40
2011,04,11,09,21,7.40
2011,04,11,09,22,7.40
2011,04,11,09,23,7.40
2011,04,11,09,24,7.30
2011,04,11,09,25,7.30
2011,04,11,09,26,7.20
2011,04,11,09,27,7.20
2011,04,11,09,28,7.20
2011,04,11,09,29,7.10
2011,04,11,09,30,7.10
2011,04,11,09,31,7.10
2011,04,11,09,32,7.00
2011,04,11,09,33,7.00
2011,04,11,09,34,7.00
2011,04,11,09,35,6.90
2011,04,11,09,36,6.90
2011,04,11,09,37,6.90
2011,04,11,09,38,6.90
2011,04,11,09,39,6.90
2011,04,11,09,40,7.00
2011,04,11,09,41,7.00
2011,04,11,09,42,7.10
2011,04,11,09,43,7.20
2011,04,11,09,44,7.20
2011,04,11,09,45,7.30
2011,04,11,09,46,7.40
2011,04,11,09,47,7.50
2011,04,11,09,48,7.50
2011,04,11,09,49,7.60
2011,04,11,09,50,7.60
2011,04,11,09,51,7.60
2011,04,11,09,52,7.60
2011,04,11,09,53,7.60
2011,04,11,09,54,7.60
2011,04,11,09,55,7.60
2011,04,11,09,56,7.50
2011,04,11,09,57,7.60
2011,04,11,09,58,7.60
2011,04,11,09,59,7.60
2011,04,11,10,00,7.60
2011,04,11,10,01,7.60
2011,04,11,10,02,7.60
2011,04,11,10,03,7.50
2011,04,11,10,04,7.50
2011,04,11,10,05,7.60
2011,04,11,10,06,7.70
2011,04,11,10,07,7.80
2011,04,11,10,08,7.90
2011,04,11,10,09,8.00
2011,04,11,10,10,8.10
2011,04,11,10,11,8.20
2011,04,11,10,12,8.20
2011,04,11,10,13,8.20
2011,04,11,10,14,8.20
2011,04,11,10,15,8.20
2011,04,11,10,16,8.20
2011,04,11,10,17,8.10
2011,04,11,10,18,8.10
2011,04,11,10,19,8.10
2011,04,11,10,20,8.00
2011,04,11,10,21,7.90
2011,04,11,10,22,7.90
2011,04,11,10,23,7.90
2011,04,11,10,24,7.90
2011,04,11,10,25,8.00
2011,04,11,10,26,8.20
2011,04,11,10,27,8.20
2011,04,11,10,28,8.20
2011,04,11,10,29,8.20
2011,04,11,10,30,8.20
2011,04,11,10,31,8.30
2011,04,11,10,32,8.30
2011,04,11,10,33,8.40
2011,04,11,10,34,8.40
2011,04,11,10,35,8.30
2011,04,11,10,36,8.30
2011,04,11,10,37,8.20
2011,04,11,10,38,8.20
2011,04,11,10,39,8.30
2011,04,11,10,40,8.40
2011,04,11,10,41,8.50
2011,04,11,10,42,8.50
2011,04,11,10,43,8.50
2011,04,11,10,44,8.60
2011,04,11,10,45,8.70
2011,04,11,10,46,8.70
2011,04,11,10,47,8.80
2011,04,11,10,48,8.90
2011,04,11,10,49,8.90
2011,04,11,10,50,9.00
2011,04,11,10,51,9.00
2011,04,11,10,52,9.10
2011,04,11,10,53,9.10
2011,04,11,10,54,9.10
2011,04,11,10,55,9.20
2011,04,11,10,56,9.20
2011,04,11,10,57,9.20
2011,04,11,10,58,9.20
2011,04,11,10,59,9.20
2011,04,11,11,00,9.10
2011,04,11,11,01,8.80
2011,04,11,11,02,8.70
2011,04,11,11,03,8.70
2011,04,11,11,04,8.70
2011,04,11,11,05,8.60
2011,04,11,11,06,8.60
2011,04,11,11,07,8.60
2011,04,11,11,08,8.60
2011,04,11,11,09,8.70
2011,04,11,11,10,8.80
2011,04,11,11,11,8.90
2011,04,11,11,12,9.00
2011,04,11,11,13,9.10
2011,04,11,11,14,9.20
2011,04,11,11,15,9.20
2011,04,11,11,16,9.10
2011,04,11,11,17,9.00
2011,04,11,11,18,8.80
2011,04,11,11,19,8.70
2011,04,11,11,20,8.70
2011,04,11,11,21,8.50
2011,04,11,11,22,8.40
2011,04,11,11,23,8.30
2011,04,11,11,24,8.20
2011,04,11,11,25,8.10
2011,04,11,11,26,8.10
2011,04,11,11,27,8.00
2011,04,11,11,28,7.90
2011,04,11,11,29,7.90
2011,04,11,11,30,7.90
2011,04,11,11,31,8.00
2011,04,11,11,32,8.00
2011,04,11,11,33,8.10
2011,04,11,11,34,8.20
2011,04,11,11,35,8.30
2011,04,11,11,36,8.40
2011,04,11,11,37,8.50
2011,04,11,11,38,8.60
2011,04,11,11,39,8.70
2011,04,11,11,40,8.80
2011,04,11,11,41,9.00
2011,04,11,11,42,9.00
2011,04,11,11,43,9.10
2011,04,11,11,44,9.10
2011,04,11,11,45,9.10
2011,04,11,11,46,9.20
2011,04,11,11,47,9.30
2011,04,11,11,48,9.30
2011,04,11,11,49,9.30
2011,04,11,11,50,9.20
2011,04,11,11,51,9.30
2011,04,11,11,52,9.30
2011,04,11,11,53,9.30
2011,04,11,11,54,9.30
2011,04,11,11,55,9.30
2011,04,11,11,56,9.20
2011,04,11,11,57,9.10
2011,04,11,11,58,9.20
2011,04,11,11,59,9.20
2011,04,11,12,00,9.20
2011,04,11,12,01,9.20
2011,04,11,12,02,9.10
2011,04,11,12,03,9.00
2011,04,11,12,04,9.00
2011,04,11,12,05,9.00
2011,04,11,12,06,8.90
2011,04,11,12,07,8.90
2011,04,11,12,08,8.90
2011,04,11,12,09,8.90
2011,04,11,12,10,8.90
2011,04,11,12,11,8.90
2011,04,11,12,12,8.90
2011,04,11,12,13,9.00
2011,04,11,12,14,9.10
2011,04,11,12,15,9.10
2011,04,11,12,16,9.20
2011,04,11,12,17,9.30
2011,04,11,12,18,9.40
2011,04,11,12,19,9.50
2011,04,11,12,20,9.60
2011,04,11,12,21,9.70
2011,04,11,12,22,9.80
2011,04,11,12,23,9.90
2011,04,11,12,24,9.90
2011,04,11,12,25,9.90
2011,04,11,12,26,9.80
2011,04,11,12,27,9.70
2011,04,11,12,28,9.60
2011,04,11,12,29,9.60
2011,04,11,12,30,9.40
2011,04,11,12,31,9.30
2011,04,11,12,32,9.20
2011,04,11,12,33,9.10
2011,04,11,12,34,9.00
2011,04,11,12,35,8.90
2011,04,11,12,36,8.90
2011,04,11,12,37,8.90
2011,04,11,12,38,8.90
2011,04,11,12,39,9.00
2011,04,11,12,40,9.10
2011,04,11,12,41,9.20
2011,04,11,12,42,9.40
2011,04,11,12,43,9.50
2011,04,11,12,44,9.50
2011,04,11,12,45,9.70
2011,04,11,12,46,9.70
2011,04,11,12,47,9.80
2011,04,11,12,48,9.70
2011,04,11,12,49,9.70
2011,04,11,12,50,9.70
2011,04,11,12,51,9.80
2011,04,11,12,52,9.90
2011,04,11,12,53,10.00
2011,04,11,12,54,10.10
2011,04,11,12,55,10.00
2011,04,11,12,56,10.00
2011,04,11,12,57,10.00
2011,04,11,12,58,10.10
2011,04,11,12,59,10.30
2011,04,11,13,00,10.30
2011,04,11,13,01,10.20
2011,04,11,13,02,10.20
2011,04,11,13,03,10.30
2011,04,11,13,04,10.30
2011,04,11,13,05,10.40
2011,04,11,13,06,10.50
2011,04,11,13,07,10.50
2011,04,11,13,08,10.70
2011,04,11,13,09,10.70
2011,04,11,13,10,10.70
2011,04,11,13,11,10.70
2011,04,11,13,12,10.60
2011,04,11,13,13,10.70
2011,04,11,13,14,10.70
2011,04,11,13,15,10.70
2011,04,11,13,16,10.80
2011,04,11,13,17,10.80
2011,04,11,13,18,10.70
2011,04,11,13,19,10.60
2011,04,11,13,20,10.60
2011,04,11,13,21,10.60
2011,04,11,13,22,10.60
2011,04,11,13,23,10.70
2011,04,11,13,24,10.80
2011,04,11,13,25,10.90
2011,04,11,13,26,11.10
2011,04,11,13,27,11.10
2011,04,11,13,28,11.10
2011,04,11,13,29,11.00
2011,04,11,13,30,10.90
2011,04,11,13,31,10.70
2011,04,11,13,32,10.40
2011,04,11,13,33,10.20
2011,04,11,13,34,10.20
2011,04,11,13,35,10.20
2011,04,11,13,36,10.20
2011,04,11,13,37,10.20
2011,04,11,13,38,10.20
2011,04,11,13,39,10.20
2011,04,11,13,40,10.30
2011,04,11,13,41,10.40
2011,04,11,13,42,10.40
2011,04,11,13,43,10.40
2011,04,11,13,44,10.40
2011,04,11,13,45,10.30
2011,04,11,13,46,10.30
2011,04,11,13,47,10.30
2011,04,11,13,48,10.30
2011,04,11,13,49,10.30
2011,04,11,13,50,10.20
2011,04,11,13,51,10.20
2011,04,11,13,52,10.10
2011,04,11,13,53,10.00
2011,04,11,13,54,10.00
2011,04,11,13,55,9.90
2011,04,11,13,56,9.80
2011,04,11,13,57,9.80
2011,04,11,13,58,9.90
2011,04,11,13,59,9.90
2011,04,11,14,00,10.00
2011,04,11,14,01,10.00
2011,04,11,14,02,10.00
2011,04,11,14,03,10.10
2011,04,11,14,04,10.00
2011,04,11,14,05,10.00
2011,04,11,14,06,10.00
2011,04,11,14,07,10.10
2011,04,11,14,08,10.20
2011,04,11,14,09,10.20
2011,04,11,14,10,10.20
2011,04,11,14,11,10.20
2011,04,11,14,12,10.20
2011,04,11,14,13,10.20
2011,04,11,14,14,10.30
2011,04,11,14,15,10.40
2011,04,11,14,16,10.50
2011,04,11,14,17,10.60
2011,04,11,14,18,10.80
2011,04,11,14,19,10.90
2011,04,11,14,20,11.00
2011,04,11,14,21,11.00
2011,04,11,14,22,11.00
2011,04,11,14,23,10.90
2011,04,11,14,24,11.00
2011,04,11,14,25,11.10
2011,04,11,14,26,11.20
2011,04,11,14,27,11.20
2011,04,11,14,28,11.10
2011,04,11,14,29,11.10
2011,04,11,14,30,11.20
2011,04,11,14,31,11.20
2011,04,11,14,32,11.20
2011,04,11,14,33,11.30
2011,04,11,14,34,11.20
2011,04,11,14,35,11.20
2011,04,11,14,36,11.10
2011,04,11,14,37,11.10
2011,04,11,14,38,11.10
2011,04,11,14,39,11.10
2011,04,11,14,40,11.20
2011,04,11,14,41,11.20
2011,04,11,14,42,11.20
2011,04,11,14,43,11.20
2011,04,11,14,44,11.30
2011,04,11,14,45,11.30
2011,04,11,14,46,11.30
2011,04,11,14,47,11.40
2011,04,11,14,48,11.50
2011,04,11,14,49,11.60
2011,04,11,14,50,11.60
2011,04,11,14,51,11.50
2011,04,11,14,52,11.50
2011,04,11,14,53,11.40
2011,04,11,14,54,11.30
2011,04,11,14,55,11.20
2011,04,11,14,56,11.20
2011,04,11,14,57,11.00
2011,04,11,14,58,10.70
2011,04,11,14,59,10.40
2011,04,11,15,00,10.20
2011,04,11,15,01,10.00
2011,04,11,15,02,9.90
2011,04,11,15,03,9.90
2011,04,11,15,04,9.90
2011,04,11,15,05,9.90
2011,04,11,15,06,10.00
2011,04,11,15,07,10.10
2011,04,11,15,08,10.20
2011,04,11,15,09,10.20
2011,04,11,15,10,10.30
2011,04,11,15,11,10.30
2011,04,11,15,12,10.40
2011,04,11,15,13,10.60
2011,04,11,15,14,10.60
2011,04,11,15,15,10.70
2011,04,11,15,16,10.80
2011,04,11,15,17,10.70
2011,04,11,15,18,10.60
2011,04,11,15,19,10.50
2011,04,11,15,20,10.50
2011,04,11,15,21,10.50
2011,04,11,15,22,10.60
2011,04,11,15,23,10.50
2011,04,11,15,24,10.60
2011,04,11,15,25,10.60
2011,04,11,15,26,10.70
2011,04,11,15,27,10.70
2011,04,11,15,28,10.70
2011,04,11,15,29,10.70
2011,04,11,15,30,10.60
2011,04,11,15,31,10.50
2011,04,11,15,32,10.40
2011,04,11,15,33,10.30
2011,04,11,15,34,10.10
2011,04,11,15,35,10.00
2011,04,11,15,36,9.80
2011,04,11,15,37,9.80
2011,04,11,15,38,9.70
2011,04,11,15,39,9.70
2011,04,11,15,40,9.60
2011,04,11,15,41,9.60
2011,04,11,15,42,9.60
2011,04,11,15,43,9.60
2011,04,11,15,44,9.70
2011,04,11,15,45,9.70
2011,04,11,15,46,9.80
2011,04,11,15,47,9.80
2011,04,11,15,48,9.80
2011,04,11,15,49,9.80
2011,04,11,15,50,9.80
2011,04,11,15,51,9.80
2011,04,11,15,52,9.80
2011,04,11,15,53,9.90
2011,04,11,15,54,9.90
2011,04,11,15,55,10.00
2011,04,11,15,56,10.10
2011,04,11,15,57,10.10
2011,04,11,15,58,10.20
2011,04,11,15,59,10.20
2011,04,11,16,00,10.20
2011,04,11,16,01,10.10
2011,04,11,16,02,10.00
2011,04,11,16,03,9.90
2011,04,11,16,04,9.80
2011,04,11,16,05,9.60
2011,04,11,16,06,9.60
2011,04,11,16,07,9.50
2011,04,11,16,08,9.40
2011,04,11,16,09,9.40
2011,04,11,16,10,9.40
2011,04,11,16,11,9.40
2011,04,11,16,12,9.50
2011,04,11,16,13,9.60
2011,04,11,16,14,9.70
2011,04,11,16,15,9.80
2011,04,11,16,16,9.90
2011,04,11,16,17,9.90
2011,04,11,16,18,10.00
2011,04,11,16,19,10.10
2011,04,11,16,20,10.10
2011,04,11,16,21,10.10
2011,04,11,16,22,10.20
2011,04,11,16,23,10.20
2011,04,11,16,24,10.20
2011,04,11,16,25,10.20
2011,04,11,16,26,10.20
2011,04,11,16,27,10.10
2011,04,11,16,28,10.20
2011,04,11,16,29,10.20
2011,04,11,16,30,10.20
2011,04,11,16,31,10.20
2011,04,11,16,32,10.20
2011,04,11,16,33,10.20
2011,04,11,16,34,10.30
2011,04,11,16,35,10.30
2011,04,11,16,36,10.30
2011,04,11,16,37,10.20
2011,04,11,16,38,10.20
2011,04,11,16,39,10.20
2011,04,11,16,40,10.20
2011,04,11,16,41,10.10
2011,04,11,16,42,10.10
2011,04,11,16,43,10.10
2011,04,11,16,44,10.10
2011,04,11,16,45,10.10
2011,04,11,16,46,10.20
2011,04,11,16,47,10.30
2011,04,11,16,48,10.30
2011,04,11,16,49,10.30
2011,04,11,16,50,10.40
2011,04,11,16,51,10.40
2011,04,11,16,52,10.40
2011,04,11,16,53,10.30
2011,04,11,16,54,10.30
2011,04,11,16,55,10.20
2011,04,11,16,56,10.20
2011,04,11,16,57,10.10
2011,04,11,16,58,10.00
2011,04,11,16,59,10.00
2011,04,11,17,00,9.90
2011,04,11,17,01,9.90
2011,04,11,17,02,9.90
2011,04,11,17,03,9.90
2011,04,11,17,04,9.90
2011,04,11,17,05,9.90
2011,04,11,17,06,9.80
2011,04,11,17,07,9.80
2011,04,11,17,08,9.70
2011,04,11,17,09,9.70
2011,04,11,17,10,9.60
2011,04,11,17,11,9.60
2011,04,11,17,12,9.60
2011,04,11,17,13,9.60
2011,04,11,17,14,9.70
2011,04,11,17,15,9.60
2011,04,11,17,16,9.60
2011,04,11,17,17,9.50
2011,04,11,17,18,9.40
2011,04,11,17,19,9.30
2011,04,11,17,20,9.30
2011,04,11,17,21,9.30
2011,04,11,17,22,9.20
2011,04,11,17,23,9.20
2011,04,11,17,24,9.10
2011,04,11,17,25,9.00
2011,04,11,17,26,9.00
2011,04,11,17,27,9.00
2011,04,11,17,28,9.00
2011,04,11,17,29,9.00
2011,04,11,17,30,9.00
2011,04,11,17,31,9.00
2011,04,11,17,32,9.00
2011,04,11,17,33,9.10
2011,04,11,17,34,9.10
2011,04,11,17,35,9.10
2011,04,11,17,36,9.10
2011,04,11,17,37,9.10
2011,04,11,17,38,9.20
2011,04,11,17,39,9.20
2011,04,11,17,40,9.20
2011,04,11,17,41,9.10
2011,04,11,17,42,9.10
2011,04,11,17,43,9.10
2011,04,11,17,44,9.00
2011,04,11,17,45,9.00
2011,04,11,17,46,9.00
2011,04,11,17,47,8.90
2011,04,11,17,48,8.80
2011,04,11,17,49,8.80
2011,04,11,17,50,8.70
2011,04,11,17,51,8.60
2011,04,11,17,52,8.60
2011,04,11,17,53,8.60
2011,04,11,17,54,8.50
2011,04,11,17,55,8.50
2011,04,11,17,56,8.40
2011,04,11,17,57,8.40
2011,04,11,17,58,8.40
2011,04,11,17,59,8.40
2011,04,11,18,00,8.40
2011,04,11,18,01,8.40
2011,04,11,18,02,8.40
2011,04,11,18,03,8.30
2011,04,11,18,04,8.30
2011,04,11,18,05,8.30
2011,04,11,18,06,8.30
2011,04,11,18,07,8.30
2011,04,11,18,08,8.20
2011,04,11,18,09,8.20
2011,04,11,18,10,8.20
2011,04,11,18,11,8.10
2011,04,11,18,12,8.10
2011,04,11,18,13,8.10
2011,04,11,18,14,8.10
2011,04,11,18,15,8.00
2011,04,11,18,16,8.00
2011,04,11,18,17,8.00
2011,04,11,18,18,8.00
2011,04,11,18,19,7.90
2011,04,11,18,20,7.90
2011,04,11,18,21,7.90
2011,04,11,18,22,7.90
2011,04,11,18,23,7.90
2011,04,11,18,24,7.80
2011,04,11,18,25,7.80
2011,04,11,18,26,7.80
2011,04,11,18,27,7.80
2011,04,11,18,28,7.80
2011,04,11,18,29,7.80
2011,04,11,18,30,7.80
2011,04,11,18,31,7.70
2011,04,11,18,32,7.70
2011,04,11,18,33,7.70
2011,04,11,18,34,7.70
2011,04,11,18,35,7.70
2011,04,11,18,36,7.70
2011,04,11,18,37,7.70
2011,04,11,18,38,7.70
2011,04,11,18,39,7.70
2011,04,11,18,40,7.60
2011,04,11,18,41,7.60
2011,04,11,18,42,7.60
2011,04,11,18,43,7.60
2011,04,11,18,44,7.60
2011,04,11,18,45,7.60
2011,04,11,18,46,7.50
2011,04,11,18,47,7.50
2011,04,11,18,48,7.50
2011,04,11,18,49,7.50
2011,04,11,18,50,7.40
2011,04,11,18,51,7.40
2011,04,11,18,52,7.40
2011,04,11,18,53,7.40
2011,04,11,18,54,7.30
2011,04,11,18,55,7.30
2011,04,11,18,56,7.30
2011,04,11,18,57,7.30
2011,04,11,18,58,7.30
2011,04,11,18,59,7.30
2011,04,11,19,00,7.30
2011,04,11,19,01,7.30
2011,04,11,19,02,7.20
2011,04,11,19,03,7.20
2011,04,11,19,04,7.20
2011,04,11,19,05,7.20
2011,04,11,19,06,7.20
2011,04,11,19,07,7.20
2011,04,11,19,08,7.20
2011,04,11,19,09,7.20
2011,04,11,19,10,7.20
2011,04,11,19,11,7.20
2011,04,11,19,12,7.20
2011,04,11,19,13,7.20
2011,04,11,19,14,7.10
2011,04,11,19,15,7.10
2011,04,11,19,16,7.10
2011,04,11,19,17,7.10
2011,04,11,19,18,7.10
2011,04,11,19,19,7.10
2011,04,11,19,20,7.00